Tracking 19847 objects as of 16-Sep-2019
HD Live streaming from Space Station
objects crossing your sky now

FENGYUN 1C DEB

Track FENGYUN 1C DEB now!
10-day predictions


NORAD ID: 35121
Int'l Code: 1999-025DKZ
Perigee: 773.0 km
Apogee: 1,007.8 km
Inclination: 98.3 °
Period: 102.6 minutes
Semi major axis: 7261 km
RCS: 0.0043 m2 (small)
Launch date: May 10, 1999
Source: People's Republic of China (PRC)
Launch site: Taiyaun Space Center, China (TSC)

Note: This is SATELLITE DEBRIS
aabbcc
Your satellite tracking list
Your tracking list is empty




NASA's NSSDC Master Catalog

Two Line Element Set (TLE):
1 35121U 99025DKZ 19242.84846887  .00000466  00000-0  28834-3 0  9992
2 35121  98.2728 265.4250 0161674 127.4908 234.1086 14.03057693593706
Source of the keplerian elements: AFSPC